Location: Bothwell
(42.3833°S, 147.0000°E)
Time: 20:23:15
(UTC+11:00)

BEESAT - Pass Details

Date: 03 October 2022
Orbit: 699 x 706 km, 98.5° (Epoch: 25 November)

Event Time Altitude Azimuth Distance (km) Brightness Sun altitude
Exits shadow 22:17:12 - 309° (NW) 2,276 ? -30.6°
Reaches altitude 10° 22:17:36 10° 305° (NW) 2,186 ? -30.6°
Maximum altitude 22:20:19 15° 271° (W) 1,877 ? -31.0°
Drops below altitude 10° 22:23:03 10° 236° (SW) 2,206 ? -31.4°
Sets 22:26:20 0° 212° (SSW) 3,137 ? -31.8°
